Location: Cactus School
(34.5700°N, 118.0931°W)
Time: 08:32:17
(UTC-07:00)

S-56A Canister/Altair - All Passes

Search period start: 13 April 2024 00:00
Search period end: 23 April 2024 00:00
Orbit: 638 x 2489 km, 38.9° (Epoch: 12 April)

Date Brightness Start Highest point End Pass type
(mag) Time Alt. Az. Time Alt. Az. Time Alt. Az.
13 Apr - 00:12:46 10° WNW 00:24:06 86° SSW 00:39:07 10° ESE visible
13 Apr - 02:18:05 10° WNW 02:30:18 46° SW 02:44:10 10° SSE visible
13 Apr - 04:28:36 10° WSW 04:35:18 15° SW 04:42:08 10° SSW visible
13 Apr - 17:29:43 10° SSW 17:34:28 27° SE 17:40:51 10° E daylight
13 Apr - 19:31:16 10° WSW 19:37:54 88° SSE 19:48:15 10° ENE visible
13 Apr - 21:35:01 10° W 21:43:28 70° N 21:56:15 10° E visible
13 Apr - 23:39:14 10° WNW 23:49:53 89° NNE 00:04:36 10° ESE visible
14 Apr - 01:44:10 10° WNW 01:56:06 50° SW 02:10:18 10° SSE visible
14 Apr - 03:53:06 10° W 04:01:20 18° SW 04:09:52 10° SSW visible
14 Apr - 16:57:14 10° S 17:01:16 21° SE 17:06:22 10° E daylight
14 Apr - 18:58:10 10° WSW 19:04:19 81° SSE 19:13:51 10° ENE daylight
14 Apr - 21:01:42 10° W 21:09:32 69° N 21:21:33 10° E visible
14 Apr - 23:05:46 10° WNW 23:15:44 85° NNE 23:30:01 10° ESE visible
15 Apr - 01:10:23 10° WNW 01:21:54 55° SW 01:36:17 10° SE visible
15 Apr - 03:18:10 10° W 03:27:19 21° SW 03:37:07 10° S visible
15 Apr - 16:25:00 10° S 16:28:06 16° SE 16:31:44 10° E daylight
15 Apr - 18:25:06 10° WSW 18:30:50 72° SSE 18:39:31 10° ENE daylight
15 Apr - 20:28:26 10° W 20:35:41 69° N 20:46:55 10° E visible
15 Apr - 22:32:22 10° WNW 22:41:40 81° NNE 22:55:22 10° ESE visible
16 Apr - 00:36:42 10° WNW 00:47:44 60° SSW 01:02:08 10° SE visible
16 Apr - 02:43:35 10° W 02:53:17 24° SW 03:04:01 10° S night (unlit)
16 Apr - 15:53:29 10° SSE 15:54:57 11° SE 15:56:29 10° ESE daylight
16 Apr - 17:52:05 10° SW 17:57:26 62° SSE 18:05:18 10° ENE daylight
16 Apr - 19:55:13 10° W 20:01:55 69° N 20:12:21 10° ENE visible
16 Apr - 21:59:01 10° WNW 22:07:40 77° NNE 22:20:42 10° E visible
17 Apr - 00:03:07 10° WNW 00:13:36 64° SSW 00:27:52 10° SE visible
17 Apr - 02:09:17 10° W 02:19:13 27° SW 02:30:40 10° S visible
17 Apr - 17:19:08 10° SW 17:24:07 52° SSE 17:31:09 10° ENE daylight
17 Apr - 19:22:01 10° W 19:28:16 70° N 19:37:52 10° ENE daylight
17 Apr - 21:25:44 10° WNW 21:33:44 74° NNE 21:46:01 10° E visible
17 Apr - 23:29:37 10° WNW 23:39:31 69° SSW 23:53:31 10° SE visible
18 Apr - 01:35:10 10° W 01:45:09 31° SW 01:57:06 10° SSE visible
18 Apr - 16:46:14 10° SW 16:50:51 42° SE 16:57:03 10° ENE daylight
18 Apr - 18:48:51 10° W 18:54:40 73° NNW 19:03:31 10° ENE daylight
18 Apr - 20:52:29 10° WNW 20:59:53 70° N 21:11:21 10° E visible
18 Apr - 22:56:12 10° WNW 23:05:30 74° SSW 23:19:05 10° SE visible
19 Apr - 01:01:15 10° W 01:11:06 34° SW 01:23:22 10° SSE visible
19 Apr - 16:13:23 10° SSW 16:17:38 33° SE 16:23:02 10° E daylight
19 Apr - 18:15:42 10° W 18:21:08 76° NNW 18:29:15 10° ENE daylight
19 Apr - 20:19:15 10° WNW 20:26:07 67° N 20:36:44 10° E visible
19 Apr - 22:22:51 10° WNW 22:31:32 79° SSW 22:44:36 10° ESE visible
20 Apr - 00:27:28 10° W 00:37:03 37° SW 00:49:29 10° SSE visible
20 Apr - 02:41:01 10° SW 02:42:17 10° SW 02:43:35 10° SW night (unlit)
20 Apr - 15:40:36 10° SSW 15:44:27 26° SE 15:49:02 10° E daylight
20 Apr - 17:42:34 10° WSW 17:47:41 82° NNW 17:55:06 10° ENE daylight
20 Apr - 19:46:04 10° WNW 19:52:25 64° N 20:02:11 10° E visible
20 Apr - 21:49:33 10° WNW 21:57:39 85° SSW 22:10:04 10° ESE visible
20 Apr - 23:53:49 10° W 00:03:03 41° SW 00:15:30 10° SSE visible
21 Apr - 02:03:45 10° WSW 02:08:19 12° SW 02:13:16 10° SSW night (unlit)
21 Apr - 15:07:55 10° S 15:11:16 20° SE 15:15:01 10° E daylight
21 Apr - 17:09:27 10° WSW 17:14:18 90° WNW 17:21:04 10° ENE daylight
21 Apr - 19:12:53 10° WNW 19:18:48 62° N 19:27:43 10° E daylight
21 Apr - 21:16:19 10° WNW 21:23:51 90° NNE 21:35:32 10° ESE visible
21 Apr - 23:20:17 10° W 23:29:05 44° SSW 23:41:24 10° SSE visible
22 Apr - 01:28:32 10° WSW 01:34:22 15° SW 01:40:54 10° SSW visible
22 Apr - 14:35:23 10° S 14:38:05 16° SE 14:40:56 10° ESE daylight
22 Apr - 16:36:19 10° WSW 16:40:58 80° SSE 16:47:09 10° ENE daylight
22 Apr - 18:39:44 10° W 18:45:13 61° N 18:53:22 10° E daylight
22 Apr - 20:43:07 10° WNW 20:50:06 84° NNE 21:01:00 10° ESE visible
22 Apr - 22:46:50 10° WNW 22:55:11 48° SSW 23:07:13 10° SE visible
